FW7166 Weather Reports


time (UTC)temp
C
wind
direction
speed
KPH
gust
KPH
rain 1hr
cm
rain 24hr
cm
rain mn
cm
humidity
%
barometer
mb
20260507220909 6 315 0.0 17.7 0.00 0.00 0.00 52 1021.6
20260507220408 6 315 0.0 17.7 0.00 0.00 0.00 53 1021.7
20260507215908 6 315 0.0 17.7 0.00 0.00 0.00 52 1021.7
20260507215408 6 315 0.0 17.7 0.00 0.00 0.00 51 1021.5
20260507214907 7 315 0.0 17.7 0.00 0.00 0.00 50 1021.2
20260507214407 7 315 0.0 17.7 0.00 0.00 0.00 50 1021.4
20260507213906 7 315 0.0 17.7 0.00 0.00 0.00 50 1021.6
20260507213405 7 315 0.0 17.7 0.00 0.00 0.00 50 1021.5
20260507212905 7 315 0.0 17.7 0.00 0.00 0.00 50 1021.5
20260507212406 7 315 0.0 17.7 0.00 0.00 0.00 49 1021.2
20260507211905 7 315 0.0 17.7 0.00 0.00 0.00 49 1021.2
20260507211405 8 315 0.0 17.7 0.00 0.00 0.00 48 1021.2
20260507210905 8 315 0.0 17.7 0.00 0.00 0.00 47 1021.0
20260507210404 8 315 0.0 17.7 0.00 0.00 0.00 47 1021.2
20260507205904 8 315 0.0 17.7 0.00 0.00 0.00 47 1020.8
20260507204847 8 315 0.0 17.7 0.00 0.00 0.00 45 1020.8
20260507204346 8 315 0.0 17.7 0.00 0.00 0.00 45 1021.0
20260507203846 9 315 0.0 17.7 0.00 0.00 0.00 44 1020.8
20260507203345 10 315 0.0 17.7 0.00 0.00 0.00 43 1020.7
20260507202844 10 315 0.0 17.7 0.00 0.00 0.00 43 1020.5
20260507202344 10 315 0.0 17.7 0.00 0.00 0.00 41 1020.6
20260507201844 10 315 0.0 17.7 0.00 0.00 0.00 39 1020.6
20260507201343 11 315 0.0 17.7 0.00 0.00 0.00 39 1020.6
20260507200843 11 315 0.0 17.7 0.00 0.00 0.00 39 1020.6
20260507200342 11 283 0.0 17.7 0.00 0.00 0.00 38 1020.3
20260507195841 11 283 0.0 17.7 0.00 0.00 0.00 38 1020.2
20260507195341 11 283 0.0 17.7 0.00 0.00 0.00 38 1020.2
20260507194840 11 283 0.0 17.7 0.00 0.00 0.00 38 1020.1
20260507194339 11 283 0.0 17.7 0.00 0.00 0.00 39 1020.1
20260507193839 11 242 0.0 17.7 0.00 0.00 0.00 40 1020.0
20260507192307 11 249 0.0 17.7 0.00 0.00 0.00 39 1019.9
20260507191806 12 249 0.0 17.7 0.00 0.00 0.00 39 1019.6
20260507191305 12 247 0.0 17.7 0.00 0.00 0.00 38 1019.4
20260507190805 12 246 0.0 17.7 0.00 0.00 0.00 38 1019.6
20260507190305 12 215 0.0 17.7 0.00 0.00 0.00 38 1019.2
20260507185804 12 214 0.0 17.7 0.00 0.00 0.00 37 1019.3
20260507184748 13 214 0.0 17.7 0.00 0.00 0.00 35 1019.0
20260507182700 14 319 0.0 17.7 0.00 0.00 0.00 27 1018.8
20260507182200 15 319 0.0 17.7 0.00 0.00 0.00 26 1018.6
20260507181659 15 319 0.0 17.7 0.00 0.00 0.00 25 1018.9
20260507180643 15 319 0.0 17.7 0.00 0.00 0.00 25 1018.6
20260507175626 15 319 0.0 17.7 0.00 0.00 0.00 23 1018.5
20260507175127 15 319 0.0 17.7 0.00 0.00 0.00 23 1018.6
20260507174111 15 319 0.0 17.7 0.00 0.00 0.00 24 1018.3
20260507173611 15 307 1.6 17.7 0.00 0.00 0.00 23 1018.2
20260507173111 15 310 0.0 17.7 0.00 0.00 0.00 23 1018.2
20260507172609 15 310 0.0 17.7 0.00 0.00 0.00 22 1018.2
20260507172109 15 310 0.0 17.7 0.00 0.00 0.00 22 1018.4
20260507171608 16 310 0.0 17.7 0.00 0.00 0.00 22 1018.1
20260507171107 16 310 1.6 17.7 0.00 0.00 0.00 22 1018.1
20260507170606 16 310 0.0 17.7 0.00 0.00 0.00 22 1018.2
20260507170106 16 310 0.0 17.7 0.00 0.00 0.00 22 1017.8
20260507165604 16 310 1.6 17.7 0.00 0.00 0.00 21 1018.0
20260507164031 16 323 0.0 17.7 0.00 0.00 0.00 23 1017.8
20260507163531 16 324 0.0 17.7 0.00 0.00 0.00 23 1017.9
20260507163031 16 324 0.0 17.7 0.00 0.00 0.00 22 1017.9
20260507162529 16 327 1.6 17.7 0.00 0.00 0.00 23 1018.0
20260507162030 17 328 1.6 17.7 0.00 0.00 0.00 23 1018.0
20260507161528 17 313 1.6 17.7 0.00 0.00 0.00 23 1017.9
20260507161027 17 226 0.0 17.7 0.00 0.00 0.00 22 1017.8
20260507160527 17 286 0.0 17.7 0.00 0.00 0.00 23 1017.9
20260507160028 17 291 1.6 17.7 0.00 0.00 0.00 23 1017.9
20260507155527 17 296 0.0 17.7 0.00 0.00 0.00 23 1017.6
20260507154511 17 278 1.6 17.7 0.00 0.00 0.00 23 1017.7
20260507154010 16 265 1.6 17.7 0.00 0.00 0.00 22 1017.7
20260507153508 17 331 1.6 17.7 0.00 0.00 0.00 22 1017.5
20260507153009 17 239 0.0 17.7 0.00 0.00 0.00 23 1017.8
20260507152509 16 25 1.6 17.7 0.00 0.00 0.00 22 1017.6
20260507152009 16 301 1.6 17.7 0.00 0.00 0.00 24 1017.7
20260507151507 17 252 1.6 17.7 0.00 0.00 0.00 22 1017.6
20260507150452 16 322 0.0 17.7 0.00 0.00 0.00 23 1017.7
20260507145950 16 327 1.6 17.7 0.00 0.00 0.00 24 1017.5
20260507145449 16 304 3.2 17.7 0.00 0.00 0.00 23 1017.3
20260507144434 17 222 1.6 17.7 0.00 0.00 0.00 22 1017.4
20260507143933 17 165 1.6 17.7 0.00 0.00 0.00 21 1017.5
20260507143433 17 204 1.6 17.7 0.00 0.00 0.00 23 1017.7
20260507142931 16 151 1.6 17.7 0.00 0.00 0.00 23 1017.7
20260507142431 16 193 1.6 17.7 0.00 0.00 0.00 22 1017.7
20260507141930 16 141 3.2 17.7 0.00 0.00 0.00 23 1017.7
20260507141429 16 232 4.8 17.7 0.00 0.00 0.00 22 1017.6
20260507140928 16 232 1.6 17.7 0.00 0.00 0.00 22 1017.7
20260507140428 16 155 1.6 17.7 0.00 0.00 0.00 24 1017.6
20260507135927 16 56 1.6 17.7 0.00 0.00 0.00 22 1017.6
20260507135426 16 300 0.0 17.7 0.00 0.00 0.00 23 1017.5
20260507134926 16 325 3.2 17.7 0.00 0.00 0.00 22 1017.5
20260507133910 16 282 1.6 17.7 0.00 0.00 0.00 22 1017.4
20260507133410 16 263 1.6 17.7 0.00 0.00 0.00 23 1017.5
20260507132909 16 302 3.2 17.7 0.00 0.00 0.00 22 1017.9
20260507132408 16 347 3.2 17.7 0.00 0.00 0.00 23 1017.8
20260507131907 16 281 3.2 17.7 0.00 0.00 0.00 22 1017.5
20260507131406 16 315 3.2 17.7 0.00 0.00 0.00 22 1017.8
20260507130350 16 241 1.6 17.7 0.00 0.00 0.00 24 1017.5
20260507125334 16 234 3.2 17.7 0.00 0.00 0.00 23 1017.4
20260507124833 16 201 3.2 17.7 0.00 0.00 0.00 22 1017.5
20260507124332 15 196 1.6 17.7 0.00 0.00 0.00 22 1017.6
20260507123831 15 231 1.6 17.7 0.00 0.00 0.00 22 1017.6
20260507123330 15 249 3.2 17.7 0.00 0.00 0.00 24 1017.5
20260507122829 15 238 3.2 17.7 0.00 0.00 0.00 22 1017.2
20260507122328 15 180 1.6 17.7 0.00 0.00 0.00 22 1017.8
20260507121828 15 272 1.6 17.7 0.00 0.00 0.00 23 1017.6
20260507121327 15 201 1.6 17.7 0.00 0.00 0.00 22 1017.2
20260507120827 15 233 3.2 17.7 0.00 0.00 0.00 21 1017.8
20260507120327 15 259 3.2 17.7 0.00 0.00 0.00 22 1017.4
20260507115827 15 201 1.6 17.7 0.00 0.00 0.00 21 1017.4
20260507115327 15 27 1.6 17.7 0.00 0.00 0.00 20 1017.6
20260507114826 15 168 1.6 17.7 0.00 0.00 0.00 19 1017.3
20260507114326 15 175 3.2 17.7 0.00 0.00 0.00 21 1017.5
20260507113825 15 158 1.6 17.7 0.00 0.00 0.00 21 1017.4
20260507113324 15 179 0.0 17.7 0.00 0.00 0.00 22 1017.6
20260507112824 14 185 4.8 17.7 0.00 0.00 0.00 20 1017.3
20260507112323 14 188 3.2 17.7 0.00 0.00 0.00 22 1017.6
20260507111822 14 177 3.2 17.7 0.00 0.00 0.00 23 1017.5
20260507111322 14 216 3.2 17.7 0.00 0.00 0.00 22 1017.5
20260507110821 14 241 4.8 17.7 0.00 0.00 0.00 23 1017.3
20260507110320 14 42 1.6 17.7 0.00 0.00 0.00 26 1017.9
20260507105820 14 299 4.8 17.7 0.00 0.00 0.00 24 1017.5
20260507105319 14 144 0.0 17.7 0.00 0.00 0.00 24 1017.1
20260507104302 13 306 1.6 17.7 0.00 0.00 0.00 26 1017.5
20260507103800 13 282 3.2 17.7 0.00 0.00 0.00 24 1017.4
20260507103300 14 289 3.2 17.7 0.00 0.00 0.00 25 1017.6
20260507102244 14 12 1.6 17.7 0.00 0.00 0.00 29 1017.3
20260507101744 13 252 1.6 17.7 0.00 0.00 0.00 31 1017.4
20260507101243 13 212 3.2 17.7 0.00 0.00 0.00 28 1017.5
20260507100741 13 305 0.0 17.7 0.00 0.00 0.00 30 1017.5
20260507100241 13 241 1.6 17.7 0.00 0.00 0.00 30 1017.4
20260507095740 13 98 1.6 17.7 0.00 0.00 0.00 28 1017.3
20260507095239 13 243 1.6 17.7 0.00 0.00 0.00 29 1017.6
20260507094738 13 293 1.6 17.7 0.00 0.00 0.00 30 1017.3
20260507093721 13 327 3.2 17.7 0.00 0.00 0.00 28 1017.3
20260507093220 12 34 0.0 17.7 0.00 0.00 0.00 29 1017.4
20260507092719 12 303 1.6 17.7 0.00 0.00 0.00 28 1017.2
20260507091703 12 222 1.6 17.7 0.00 0.00 0.00 26 1017.3
20260507091203 12 272 1.6 17.7 0.00 0.00 0.00 31 1017.5
20260507090702 12 233 0.0 17.7 0.00 0.00 0.00 34 1017.4
20260507090202 12 220 1.6 17.7 0.00 0.00 0.00 35 1017.3
20260507085702 12 280 0.0 17.7 0.00 0.00 0.00 33 1017.5
20260507085200 12 148 1.6 17.7 0.00 0.00 0.00 32 1017.7
20260507084700 11 272 1.6 17.7 0.00 0.00 0.00 34 1017.5
20260507084200 11 245 1.6 17.7 0.00 0.00 0.00 34 1017.4
20260507083700 11 241 3.2 17.7 0.00 0.00 0.00 32 1017.6
20260507083200 11 256 0.0 17.7 0.00 0.00 0.00 34 1017.3
20260507082145 11 204 1.6 17.7 0.00 0.00 0.00 35 1017.0
20260507081644 11 245 1.6 17.7 0.00 0.00 0.00 33 1017.2
20260507081142 11 243 1.6 17.7 0.00 0.00 0.00 34 1017.1
20260507080642 11 276 1.6 17.7 0.00 0.00 0.00 34 1017.0
20260507080141 11 221 0.0 17.7 0.00 0.00 0.00 35 1016.9
20260507075641 11 344 1.6 17.7 0.00 0.00 0.00 35 1017.1
20260507075141 10 227 1.6 17.7 0.00 0.00 0.00 36 1017.1
20260507074640 10 269 1.6 17.7 0.00 0.00 0.00 34 1017.0
20260507074139 10 249 1.6 17.7 0.00 0.00 0.00 34 1017.0
20260507073123 10 330 1.6 17.7 0.00 0.00 0.00 39 1017.0
20260507072622 10 338 0.0 17.7 0.00 0.00 0.00 39 1017.1
20260507072122 10 340 1.6 17.7 0.00 0.00 0.00 39 1017.1
20260507071621 10 165 0.0 17.7 0.00 0.00 0.00 42 1017.3
20260507071120 9 298 1.6 17.7 0.00 0.00 0.00 44 1017.1
20260507070619 9 298 0.0 17.7 0.00 0.00 0.00 46 1017.2
20260507065603 8 297 0.0 17.7 0.00 0.00 0.00 48 1016.9
20260507065103 8 252 1.6 17.7 0.00 0.00 0.00 47 1017.1
20260507064603 8 228 1.6 17.7 0.00 0.00 0.00 49 1017.0
20260507064102 8 231 1.6 17.7 0.00 0.00 0.00 50 1016.9
20260507063602 8 227 1.6 17.7 0.00 0.00 0.00 50 1016.7
20260507063101 9 227 0.0 17.7 0.00 0.00 0.00 55 1017.0
20260507062601 8 224 0.0 17.7 0.00 0.00 0.00 57 1017.0
20260507062101 8 224 0.0 17.7 0.00 0.00 0.00 57 1016.6
20260507061044 8 234 0.0 17.7 0.00 0.00 0.00 59 1016.9
20260507060544 8 232 0.0 17.7 0.00 0.00 0.00 59 1017.0
20260507060044 7 232 0.0 17.7 0.00 0.00 0.00 60 1017.1
20260507055544 7 232 0.0 17.7 0.00 0.00 0.00 61 1017.0
20260507055044 7 232 0.0 17.7 0.00 0.00 0.00 63 1016.7
20260507054544 6 232 0.0 17.7 0.00 0.00 0.00 67 1016.9
20260507054043 6 232 0.0 17.7 0.00 0.00 0.00 66 1017.0
20260507053543 6 232 0.0 17.7 0.00 0.00 0.00 69 1016.9
20260507053043 6 232 0.0 17.7 0.00 0.00 0.00 71 1017.0
20260507052543 5 232 0.0 17.7 0.00 0.00 0.00 73 1017.0
20260507052043 5 232 0.0 17.7 0.00 0.00 0.00 73 1016.9
20260507051543 4 232 0.0 17.7 0.00 0.00 0.00 75 1017.1
20260507050527 3 232 0.0 17.7 0.00 0.00 0.00 75 1016.7
20260507050026 3 232 0.0 17.7 0.00 0.00 0.00 76 1017.0
20260507045526 3 232 0.0 17.7 0.00 0.00 0.00 77 1017.1
20260507045025 3 232 0.0 17.7 0.00 0.00 0.00 77 1017.2
20260507044009 3 232 0.0 17.7 0.00 0.00 0.00 81 1016.9
20260507043509 2 232 0.0 17.7 0.00 0.00 0.00 81 1016.9
20260507043008 2 232 0.0 17.7 0.00 0.00 0.00 81 1016.8
20260507042507 2 232 0.0 17.7 0.00 0.00 0.00 81 1016.8
20260507042006 2 232 0.0 17.7 0.00 0.00 0.00 82 1016.7
20260507041505 2 232 0.0 17.7 0.00 0.00 0.00 82 1016.8
20260507041005 2 232 0.0 17.7 0.00 0.00 0.00 82 1016.9
20260507040505 2 232 0.0 17.7 0.00 0.00 0.00 81 1016.9
20260507040004 2 232 0.0 17.7 0.00 0.00 0.00 81 1016.8
20260507035504 2 232 0.0 17.7 0.00 0.00 0.00 80 1016.6
20260507035004 2 232 0.0 17.7 0.00 0.00 0.00 80 1016.6
20260507034505 2 232 0.0 17.7 0.00 0.00 0.00 80 1016.8
20260507034004 2 232 0.0 17.7 0.00 0.00 0.00 80 1016.2
20260507033504 2 232 0.0 17.7 0.00 0.00 0.00 80 1016.5
20260507033004 2 232 0.0 17.7 0.00 0.00 0.00 81 1016.4
20260507032504 2 233 1.6 17.7 0.00 0.00 0.00 82 1016.1
20260507032002 2 223 1.6 17.7 0.00 0.00 0.00 85 1016.4
20260507031501 1 213 0.0 17.7 0.00 0.00 0.00 87 1016.3
20260507031000 1 225 1.6 17.7 0.00 0.00 0.00 88 1016.2
20260507030459 1 230 0.0 17.7 0.00 0.00 0.00 87 1016.2
20260507025959 1 230 1.6 17.7 0.00 0.00 0.00 88 1016.3
20260507025458 1 210 1.6 17.7 0.00 0.00 0.00 88 1016.4
20260507024958 1 209 1.6 17.7 0.00 0.00 0.00 87 1016.2
20260507023943 1 209 0.0 17.7 0.00 0.00 0.00 87 1016.2
20260507023443 1 209 0.0 17.7 0.00 0.00 0.00 87 1016.3
20260507021912 1 209 0.0 17.7 0.00 0.00 0.00 85 1015.9
20260507021412 1 209 0.0 17.7 0.00 0.00 0.00 85 1016.3
20260507020912 1 209 0.0 17.7 0.00 0.00 0.00 84 1016.2
20260507020412 1 209 0.0 17.7 0.00 0.00 0.00 84 1016.1
20260507015911 2 209 0.0 17.7 0.00 0.00 0.00 83 1016.2
20260507015411 2 209 0.0 17.7 0.00 0.00 0.00 83 1016.1
20260507014911 2 209 0.0 17.7 0.00 0.00 0.00 82 1016.4
20260507014411 2 209 0.0 17.7 0.00 0.00 0.00 82 1016.1
20260507013911 2 209 0.0 17.7 0.00 0.00 0.00 82 1016.2
20260507013410 2 209 0.0 17.7 0.00 0.00 0.00 82 1016.0
20260507012910 3 209 0.0 17.7 0.00 0.00 0.00 81 1015.9
20260507012409 3 209 0.0 17.7 0.00 0.00 0.00 80 1016.0
20260507011353 3 209 0.0 17.7 0.00 0.00 0.00 80 1016.0
20260507010853 3 209 0.0 17.7 0.00 0.00 0.00 80 1016.1
20260507010352 3 209 0.0 17.7 0.00 0.00 0.00 79 1015.9
20260507005852 3 209 0.0 17.7 0.00 0.00 0.00 79 1015.9
20260507005352 3 209 0.0 17.7 0.00 0.00 0.00 79 1015.6
20260507004851 4 209 0.0 17.7 0.00 0.00 0.00 78 1015.9
20260507004351 4 209 0.0 17.7 0.00 0.00 0.00 77 1015.7
20260507003850 4 209 0.0 17.7 0.00 0.00 0.00 77 1015.6
20260507002835 5 209 0.0 17.7 0.00 0.00 0.00 76 1015.4
20260507002335 5 209 0.0 17.7 0.00 0.00 0.00 77 1015.4
20260507001834 5 142 0.0 17.7 0.00 0.00 0.00 77 1015.5
20260507001334 5 116 0.0 17.7 0.00 0.00 0.00 76 1015.9
20260507000321 5 116 0.0 17.7 0.00 0.00 0.00 75 1015.8
20260506235306 6 116 0.0 17.7 0.00 0.00 0.00 74 1015.4
20260506234802 6 116 0.0 17.7 0.00 0.00 0.00 74 1015.3
20260506234301 6 116 0.0 17.7 0.00 0.00 0.00 74 1015.5
20260506233800 6 116 0.0 17.7 0.00 0.00 0.00 74 1015.3
20260506233300 6 116 0.0 17.7 0.00 0.00 0.00 74 1015.7
20260506232800 6 116 0.0 17.7 0.00 0.00 0.00 74 1015.7
20260506232300 6 116 0.0 17.7 0.00 0.00 0.00 74 1015.5
20260506231800 6 117 0.0 17.7 0.00 0.00 0.00 73 1015.7
20260506230744 6 117 0.0 17.7 0.00 0.00 0.00 73 1015.5
20260506230244 6 117 0.0 17.7 0.00 0.00 0.00 72 1015.3
20260506225744 6 117 0.0 17.7 0.00 0.00 0.00 71 1015.3
20260506225244 6 117 0.0 17.7 0.00 0.00 0.00 72 1015.4
20260506224229 6 117 0.0 17.7 0.00 0.00 0.00 70 1015.4
20260506223213 6 94 0.0 17.7 0.00 0.00 0.00 70 1015.4
20260506222712 6 99 0.0 17.7 0.00 0.00 0.00 70 1015.0
20260506221656 6 114 0.0 17.7 0.00 0.00 0.00 71 1015.3
20260506221156 6 119 0.0 17.7 0.00 0.00 0.00 71 1015.4